EW9634 Weather Reports


Display with metric or nautical units.
time (UTC)temp
F
wind
direction
speed
MPH
gust
MPH
rain 1hr
in
rain 24hr
in
rain mn
in
humidity
%
barometer
mb
20260509065004 56 180 3.0 4.0 0.00 0.00 0.00 96 1006.4
20260509064004 55 203 4.0 6.0 0.00 0.00 0.00 96 1006.6
20260509063024 55 203 4.0 5.0 0.00 0.00 0.00 96 1006.6
20260509062003 55 203 2.0 3.0 0.00 0.00 0.00 96 1006.6
20260509061004 55 203 2.0 3.0 0.00 0.00 0.00 96 1006.5
20260509060004 54 203 1.0 1.0 0.00 0.00 0.00 96 1006.5
20260509055003 55 203 1.0 2.0 0.00 0.00 0.00 96 1006.5
20260509054003 55 203 2.0 3.0 0.00 0.00 0.00 96 1006.6
20260509053004 55 203 2.0 3.0 0.00 0.00 0.00 96 1006.5
20260509052004 55 203 3.0 4.0 0.00 0.00 0.00 96 1006.6
20260509051004 55 203 4.0 5.0 0.00 0.00 0.00 96 1006.7
20260509050124 54 203 2.0 5.0 0.00 0.00 0.00 96 1006.5
20260509045102 53 180 2.0 3.0 0.00 0.00 0.00 95 1006.3
20260509044102 52 0.0 0.0 0.00 0.00 0.00 95 1006.3
20260509043102 52 203 1.0 2.0 0.00 0.00 0.00 94 1006.3
20260509042122 52 225 2.0 2.0 0.00 0.00 0.00 94 1006.4
20260509041102 52 225 1.0 1.0 0.00 0.00 0.00 94 1006.6
20260509035102 53 0.0 0.0 0.00 0.00 0.00 93 1006.5
20260509034101 54 0.0 0.0 0.00 0.00 0.00 92 1006.6
20260509033102 54 225 2.0 2.0 0.00 0.00 0.00 91 1006.6
20260509032122 56 0.0 0.0 0.00 0.00 0.00 90 1006.7
20260509031102 56 225 1.0 2.0 0.00 0.00 0.00 92 1006.5
20260509030122 55 225 2.0 3.0 0.00 0.00 0.00 92 1006.5
20260509025102 55 248 3.0 3.0 0.00 0.00 0.00 93 1006.3
20260509024102 55 0.0 0.0 0.00 0.00 0.00 91 1006.1
20260509023142 55 270 1.0 2.0 0.00 0.00 0.00 90 1006.0
20260509022122 56 0.0 0.0 0.00 0.00 0.00 88 1005.9
20260509021101 57 0.0 0.0 0.00 0.00 0.00 87 1005.8
20260509015101 58 293 2.0 3.0 0.00 0.00 0.00 86 1005.8
20260509014004 59 293 1.0 1.0 0.00 0.00 0.00 84 1005.8
20260509013005 61 293 1.0 2.0 0.00 0.00 0.00 82 1005.7
20260509012004 61 293 3.0 4.0 0.00 0.00 0.00 81 1005.6
20260509011003 62 293 2.0 3.0 0.00 0.00 0.00 80 1005.3
20260509010008 63 293 3.0 4.0 0.00 0.00 0.00 79 1005.1
20260509005003 64 293 3.0 4.0 0.00 0.00 0.00 78 1005.0
20260509004003 65 315 2.0 3.0 0.00 0.00 0.00 76 1004.9
20260509003004 65 315 2.0 3.0 0.00 0.00 0.00 75 1004.7
20260509002024 65 23 2.0 2.0 0.00 0.00 0.00 77 1004.8
20260509001004 65 0.0 0.0 0.00 0.00 0.00 77 1004.8
20260509000005 65 90 1.0 1.0 0.00 0.00 0.00 78 1004.7
20260508235003 65 0.0 0.0 0.00 0.00 0.00 78 1004.7
20260508234003 65 0.0 1.0 0.00 0.00 0.00 78 1004.7
20260508233004 64 113 1.0 2.0 0.00 0.00 0.00 81 1004.5
20260508232023 64 113 1.0 2.0 0.00 0.00 0.00 79 1004.4
20260508231024 64 90 4.0 6.0 0.00 0.00 0.00 78 1004.3
20260508230010 65 113 3.0 4.0 0.00 0.00 0.00 80 1004.5
20260508225003 64 113 5.0 6.0 0.00 0.00 0.00 81 1004.3
20260508224003 64 90 2.0 3.0 0.00 0.00 0.00 82 1004.4
20260508223023 64 23 4.0 5.0 0.00 0.00 0.00 80 1004.4
20260508222023 64 23 6.0 9.0 0.00 0.00 0.00 82 1004.8
20260508221004 63 338 8.0 11.0 0.00 0.00 0.00 82 1005.0
20260508220015 64 338 12.0 15.0 0.00 0.00 0.00 82 1005.1
20260508215004 64 338 11.0 13.0 0.00 0.00 0.00 82 1005.3
20260508214003 64 338 12.0 13.0 0.00 0.00 0.00 80 1005.2
20260508213003 65 338 8.0 12.0 0.00 0.00 0.00 79 1005.4
20260508212004 65 338 9.0 12.0 0.00 0.00 0.00 78 1005.6
20260508211003 66 338 10.0 12.0 0.00 0.00 0.00 76 1005.6
20260508210017 67 293 5.0 7.0 0.00 0.00 0.00 76 1005.6
20260508205004 67 293 9.0 10.0 0.00 0.00 0.00 76 1005.7
20260508204003 67 293 8.0 11.0 0.00 0.00 0.00 74 1005.7
20260508203024 67 338 3.0 5.0 0.00 0.00 0.00 74 1005.3
20260508202008 67 293 3.0 4.0 0.00 0.00 0.00 73 1005.6
20260508201008 67 270 4.0 6.0 0.00 0.00 0.00 72 1006.1
20260508200008 66 270 6.0 9.0 0.00 0.00 0.00 75 1006.5
20260508195004 65 180 2.0 4.0 0.00 0.00 0.00 75 1005.7
20260508194003 66 180 4.0 5.0 0.00 0.00 0.00 73 1005.8
20260508193008 66 113 2.0 2.0 0.00 0.00 0.00 72 1005.4
20260508192003 67 0.0 1.0 0.00 0.00 0.00 74 1006.0
20260508191003 66 248 4.0 5.0 0.00 0.00 0.00 73 1006.2
20260508190025 65 225 5.0 9.0 0.00 0.00 0.00 74 1006.1
20260508185024 65 180 2.0 3.0 0.00 0.00 0.00 74 1006.1
20260508184003 65 225 2.0 3.0 0.00 0.00 0.00 73 1006.6
20260508183023 65 203 3.0 5.0 0.00 0.00 0.00 75 1006.6
20260508182003 65 225 3.0 5.0 0.00 0.00 0.00 74 1006.8
20260508181003 65 203 5.0 7.0 0.00 0.00 0.00 72 1006.9
20260508180004 65 225 5.0 7.0 0.00 0.00 0.00 72 1007.0
20260508175004 65 203 5.0 7.0 0.00 0.00 0.00 72 1007.1
20260508174003 66 248 2.0 3.0 0.00 0.00 0.00 72 1007.1
20260508173003 65 248 4.0 6.0 0.00 0.00 0.00 72 1007.2
20260508172003 65 203 4.0 6.0 0.00 0.00 0.00 74 1006.8
20260508171003 64 225 4.0 6.0 0.00 0.00 0.00 74 1006.7
20260508170010 63 203 5.0 8.0 0.00 0.00 0.00 74 1007.0
20260508165004 63 203 3.0 5.0 0.00 0.00 0.00 73 1007.3
20260508164003 63 225 9.0 12.0 0.00 0.00 0.00 73 1007.4
20260508163024 62 203 4.0 7.0 0.00 0.00 0.00 74 1007.5
20260508162003 62 203 5.0 9.0 0.00 0.00 0.00 74 1007.6
20260508161002 62 225 7.0 15.0 0.00 0.00 0.00 73 1007.5
20260508160003 63 225 6.0 7.0 0.00 0.00 0.00 73 1007.5
20260508155003 62 203 4.0 5.0 0.00 0.00 0.00 72 1007.5
20260508154043 62 225 7.0 10.0 0.00 0.00 0.00 74 1007.4
20260508153008 61 203 6.0 8.0 0.00 0.00 0.00 73 1007.5
20260508152003 61 203 4.0 6.0 0.00 0.00 0.00 73 1007.5
20260508151002 61 225 3.0 4.0 0.00 0.00 0.00 72 1007.8
20260508150003 61 203 5.0 9.0 0.00 0.00 0.00 72 1007.8
20260508145002 61 180 3.0 5.0 0.00 0.00 0.00 73 1007.6
20260508144002 60 203 4.0 8.0 0.00 0.00 0.00 74 1007.5
20260508143023 60 180 5.0 8.0 0.00 0.00 0.00 73 1007.7
20260508142002 60 203 7.0 9.0 0.00 0.00 0.00 73 1007.6
20260508141002 60 203 6.0 9.0 0.00 0.00 0.00 73 1007.6
20260508140003 60 180 5.0 9.0 0.00 0.00 0.00 73 1007.8
20260508135002 59 180 2.0 4.0 0.00 0.00 0.00 74 1007.8
20260508134002 59 203 4.0 5.0 0.00 0.00 0.00 72 1007.7
20260508133003 59 203 4.0 7.0 0.00 0.00 0.00 71 1007.7
20260508132003 59 225 5.0 8.0 0.00 0.00 0.00 71 1007.8
20260508131022 59 203 7.0 12.0 0.00 0.00 0.00 71 1007.7
20260508130002 59 203 6.0 9.0 0.00 0.00 0.00 70 1008.1
20260508125002 58 248 4.0 5.0 0.00 0.00 0.00 71 1007.8
20260508124002 58 180 6.0 7.0 0.00 0.00 0.00 71 1007.6
20260508123002 58 203 7.0 11.0 0.00 0.00 0.00 71 1007.6
20260508122002 58 225 6.0 9.0 0.00 0.00 0.00 70 1007.5
20260508121002 58 203 8.0 10.0 0.00 0.00 0.00 70 1007.4
20260508120002 58 203 7.0 11.0 0.00 0.00 0.00 70 1007.6
20260508115002 58 225 6.0 8.0 0.00 0.00 0.00 70 1007.6
20260508114002 58 225 5.0 8.0 0.00 0.00 0.00 71 1007.6
20260508113002 57 203 9.0 13.0 0.00 0.00 0.00 72 1007.2
20260508112022 57 203 5.0 7.0 0.00 0.00 0.00 72 1007.2
20260508111022 57 203 7.0 9.0 0.00 0.00 0.00 72 1007.4
20260508110023 57 225 3.0 5.0 0.00 0.00 0.00 72 1007.6
20260508105002 56 225 6.0 9.0 0.00 0.00 0.00 73 1007.1
20260508104002 56 158 7.0 11.0 0.00 0.00 0.00 73 1007.1
20260508103002 56 203 5.0 9.0 0.00 0.00 0.00 74 1007.1
20260508102002 56 203 5.0 9.0 0.00 0.00 0.00 74 1007.1
20260508101002 56 203 4.0 6.0 0.00 0.00 0.00 74 1007.0
20260508100002 56 225 3.0 4.0 0.00 0.00 0.00 73 1007.0
20260508095002 56 180 4.0 7.0 0.00 0.00 0.00 74 1007.0
20260508094002 56 203 4.0 7.0 0.00 0.00 0.00 74 1007.0
20260508093022 56 158 4.0 6.0 0.00 0.00 0.00 74 1006.8
20260508092022 56 180 7.0 11.0 0.00 0.00 0.00 74 1006.8
20260508091002 56 203 5.0 8.0 0.00 0.00 0.00 74 1006.8
20260508090005 56 158 5.0 10.0 0.00 0.00 0.00 74 1007.0
20260508085023 56 203 6.0 10.0 0.00 0.00 0.00 74 1007.0
20260508084003 55 203 6.0 9.0 0.00 0.00 0.00 74 1007.1
20260508083004 55 180 5.0 9.0 0.00 0.00 0.00 74 1007.1
20260508082004 56 158 4.0 6.0 0.00 0.00 0.00 74 1007.2
20260508081004 56 180 4.0 7.0 0.00 0.00 0.00 73 1007.4
20260508080009 56 203 6.0 8.0 0.00 0.00 0.00 72 1007.3
20260508075004 56 203 7.0 10.0 0.00 0.00 0.00 73 1007.6
20260508074003 56 203 6.0 10.0 0.00 0.00 0.00 73 1007.6
20260508073004 56 203 6.0 9.0 0.00 0.00 0.00 73 1007.7
20260508072024 56 158 6.0 11.0 0.00 0.00 0.00 73 1007.8
20260508071024 56 203 5.0 7.0 0.00 0.00 0.00 73 1008.0
20260508070006 56 203 4.0 5.0 0.00 0.00 0.00 73 1008.2